Showing default

SUPERVIEW NEO-2 03, 62079

Orbit data source: Space-Track

SUPERVIEW NEO-2 03, 62079 is a payload satellite owned by Siwei (CN) in SSO that was launched on Sun, 24 Nov 2024 UTC via a CHANG ZHENG 2C launch vehicle from the Jiuquan Satellite Launch Center, China (JSC). Payload-class satellites include a variety of spacecraft equipped with specific instruments for various scientific and technological missions. These include communications satellites like Starlink; space stations such as the ISS; scientific satellites like the Hubble; Earth observation satellites from companies like Planet Labs, Umbra, and HawkEye 360; GPS; miniature CubeSats for education and research; and military/defense satellites.

Loading next visibility...
Identifier
62079, 2024-218B
Orbit
SSO
Last TLE update
6 hours ago
Origin
Manufacturer
DFH
Mission
Operational Commercial Radar Imaging
Bus & Motor
SIWEI, Unknown motor
Mass
600 kg wet, ~500 kg dry
Launch date (UTC)
2024-11-24 (7 months ago)
Launch vehicle
CHANG ZHENG 2C
Launch site
Jiuquan Satellite Launch Center, China (JSC)
Object type
Payload
Rocket body
Debris
Shape & HBR
Box, 0.5 m
Radar Cross Section
0.375 m², Large (>1 m²)

Expand to show TLE details & history

TLE from 6 hours ago
0 SUPERVIEW NEO-2 03
1 62079U 24218B   25186.78005238  .00000534  00000-0  28162-4 0  9991
2 62079  97.4396 194.0832 0001577  88.7020 271.4396 15.19719064 33838
Epoch: 2025-07-05T18:43Z
TLE epoch observation values (Epoch: 2025-07-05T18:43:16.525Z)
Latitude
0.00001°
Longitude
-10.74884°
Altitude
509.751 km
Speed
7.609 km/s
True Right ascension
12h 56m 19s
True Declination
0° 00' 00"
Sunlit
Object was in daylight at epoch
Visualization orbit readout
Latitude
-51.66091°
Longitude
160.0366°
Altitude
527.675 km
Speed
7.597 km/s
Apparent Right ascension
00h 22m 35s
Apparent Declination
-45° 50' 33"
Sunlit
Object is in full shadow
Visualization observer readout
Local Sidereal Time
12:25:18
Azimuth
175.411° S
Elevation
-84.053°
Doppler factor
1
Orbital elements
Apogee altitude
504.742 km
Perigee altitude
502.571 km
Semi-major axis
6,881.794 km
Eccentricity
0.00016
Inclination
97.4396°
RAAN
194.0832°
Arg. of periapsis
88.702°
True anomaly
Unknown
Mean anomaly
271.4396°
Eccentric anomaly
Unknown
Mean motion
3.80181 °/min
Orbital period
94.69 mins
BSTAR
0.000028162
Loading maneuver chart data...
Loading SW <> Apogee altitude chart data...
Loading historical data...
Loading historical data...
Loading historical data...
Loading historical data...
Loading historical data...
Loading historical data...
Loading historical data...
Other satellites on launch #218 in the year 2024 (2024-11-24 UTC)

SUPERVIEW NEO-2 03 Visibility forecast

Observer location: undefined°, undefined°

Span
Click to sort rows by Start time (UTC) header in descending order
Start Az.
Max El. time (UTC)
Max El. Az.
Max El.
End time (UTC)
End Az.
6 mins2025-07-06 01:09:47.316Z203.961° SW2025-07-06 01:12:47.316Z262.722° W25.311°2025-07-06 01:15:47.316Z322.348° NNW
4 mins2025-07-06 12:41:47.316Z59.467° ENE2025-07-06 12:43:47.316Z108.189° ESE21.893°2025-07-06 12:45:47.316Z145.788° SSE
|